Location: ??
(35.3149°N, 139.6204°E)
Time: 11:09:00
(UTC+00:00)

Terra - Pass Details

Date: 03 August 2024
Orbit: 690 x 695 km, 98.0° (Epoch: 10 September)

Event Time Altitude Azimuth Distance (km) Brightness Sun altitude
Exits shadow 12:18:24 60° 249° (WSW) 796 2.1 -26.6°
Maximum altitude 12:18:33 60° 259° (W) 794 2.1 -26.6°
Drops below altitude 10° 12:23:14 10° 340° (NNW) 2,161 5.2 -27.2°
Sets 12:25:32 0° 344° (NNW) 3,081 6.2 -27.5°
